Location: Unspecified
(0.0000°N, 0.0000°E)
Time: 11:52:48
(UTC+00:00)

STARLINK-36491 - Pass Details

Date: 14 February 2026
Orbit: 482 x 484 km, 43.0° (Epoch: 8 March)

Event Time Altitude Azimuth Distance (km) Brightness Sun altitude
Rises 20:02:17 0° 212° (SSW) 2,539 ? -26.3°
Reaches altitude 10° 20:04:35 10° 203° (SSW) 1,660 ? -26.9°
Enters shadow 20:05:38 17° 195° (SSW) 1,287 ? -27.1°
